TimeMST,TemperatureF,Dew PointF,Humidity,Sea Level PressureIn,VisibilityMPH,Wind Direction,Wind SpeedMPH,Gust SpeedMPH,PrecipitationIn,Events,Conditions,WindDirDegrees,DateUTC
12:53 AM,23.0,15.1,72,30.02,10.0,East,6.9,-,N/A,,Clear,80,2013-02-08 07:53:00
1:53 AM,26.1,15.1,63,30.00,10.0,ESE,6.9,-,N/A,,Clear,120,2013-02-08 08:53:00
2:53 AM,26.1,15.1,63,29.98,10.0,East,3.5,-,N/A,,Clear,100,2013-02-08 09:53:00
3:53 AM,28.0,17.1,63,29.94,10.0,ESE,12.7,-,N/A,,Clear,120,2013-02-08 10:53:00
4:53 AM,19.9,12.9,74,29.99,10.0,ENE,3.5,-,N/A,,Clear,70,2013-02-08 11:53:00
5:53 AM,19.9,14.0,78,30.01,10.0,Calm,Calm,-,N/A,,Clear,0,2013-02-08 12:53:00
6:53 AM,19.9,14.0,78,30.03,10.0,WSW,3.5,-,N/A,,Clear,240,2013-02-08 13:53:00
7:53 AM,18.0,14.0,84,30.05,10.0,Calm,Calm,-,N/A,,Clear,0,2013-02-08 14:53:00
8:53 AM,23.0,16.0,74,30.01,10.0,SE,3.5,-,N/A,,Clear,130,2013-02-08 15:53:00
9:53 AM,30.9,18.0,59,29.99,10.0,Calm,Calm,-,N/A,,Clear,0,2013-02-08 16:53:00
10:53 AM,36.0,19.0,50,29.95,10.0,Calm,Calm,-,N/A,,Clear,0,2013-02-08 17:53:00
11:53 AM,37.9,19.0,47,29.91,10.0,SSE,3.5,-,N/A,,Clear,150,2013-02-08 18:53:00
12:53 PM,42.1,19.0,40,29.87,10.0,SE,5.8,-,N/A,,Clear,130,2013-02-08 19:53:00
1:53 PM,48.9,18.0,29,29.80,10.0,SE,6.9,-,N/A,,Clear,130,2013-02-08 20:53:00
2:53 PM,52.0,10.0,19,29.77,10.0,SE,9.2,-,N/A,,Clear,130,2013-02-08 21:53:00
3:53 PM,52.0,10.0,19,29.76,10.0,ESE,9.2,-,N/A,,Clear,120,2013-02-08 22:53:00
4:53 PM,46.9,16.0,29,29.78,10.0,East,8.1,-,N/A,,Clear,80,2013-02-08 23:53:00
5:53 PM,37.0,15.1,41,29.82,10.0,ENE,10.4,-,N/A,,Clear,70,2013-02-09 00:53:00
6:53 PM,33.1,16.0,50,29.82,10.0,ENE,10.4,-,N/A,,Clear,70,2013-02-09 01:53:00
7:34 PM,30.2,15.8,55,29.72,10.0,North,-9999.0,-,N/A,,Clear,0,2013-02-09 02:34:00
7:53 PM,30.9,17.1,57,29.83,10.0,ENE,8.1,-,N/A,,Clear,70,2013-02-09 02:53:00
8:53 PM,33.1,18.0,54,29.81,10.0,NW,3.5,-,N/A,,Clear,320,2013-02-09 03:53:00
9:26 PM,33.8,17.6,52,29.71,10.0,NNE,17.3,-,N/A,,Mostly Cloudy,20,2013-02-09 04:26:00
9:53 PM,33.1,19.0,56,29.77,10.0,NNE,17.3,-,N/A,,Scattered Clouds,30,2013-02-09 04:53:00
10:53 PM,30.0,19.0,64,29.77,10.0,North,6.9,-,N/A,,Clear,360,2013-02-09 05:53:00
11:53 PM,30.0,19.0,64,29.75,10.0,NNE,23.0,-,N/A,,Clear,30,2013-02-09 06:53:00